Weather History for Clinton, MO

Change the Weather History Date:

Tuesday, October 15, 2013

  Actual Average (KSZL) Record (KSZL)
Temperature  
Mean Temperature 55 °F -  
Max Temperature 64 °F 65 °F 87 °F (1999)
Min Temperature 46 °F 45 °F 36 °F (2011)
Degree Days  
Heating Degree Days 10    
Growing Degree Days 5 (Base 50)    
Moisture  
Dew Point 51 °F    
Average Humidity 79    
Maximum Humidity 100    
Minimum Humidity 55    
Precipitation  
Precipitation 0.48 in - - ()
Sea Level Pressure  
Sea Level Pressure 29.98 in    
Wind  
Wind Speed 7 mph (West)    
Max Wind Speed 13 mph    
Max Gust Speed 21 mph    
Visibility 8 miles    
Events Rain    
Averages and records for this station are not official NWS values.
T = Trace of Precipitation, MM = Missing Value Source: NWS Daily Summary

Daily Weather History Graph

Daily Weather History Graph

Search for Another Location

Airport:

Trip Planner

Search our weather history database for the weather conditions in past years. The results will help you decide how hot, cold, wet, or windy it might be!

Date:

Astronomy

Oct. 15, 2013 Rise Set
Actual Time 7:23 AM CDT 6:36 PM CDT
Civil Twilight 6:57 AM CDT 7:02 PM CDT
Nautical Twilight 6:26 AM CDT 7:33 PM CDT
Astronomical Twilight 5:55 AM CDT 8:04 PM CDT
Moon 4:39 PM CDT (10/15) 3:49 AM CDT (10/15)
Length of Visible Light 12h 05m
Length of Day
11h 12m
Waxing Gibbous, 88% of the Moon is Illuminated
Oct 15
Waxing Gibbous
Oct 18
Full
Oct 26
Last Quarter
Nov 3
New
Nov 9
First Quarter

Hourly Weather History & Observations

Time (CDT) Temp. Dew Point Humidity Pressure Visibility Wind Dir Wind Speed Gust Speed Precip Events Conditions
12:15 AM 64.4 °F 60.8 °F 88% 29.94 in 8.0 mi SE 10.4 mph - N/A   Overcast
12:35 AM 64.4 °F 60.8 °F 88% 29.95 in 5.0 mi South 5.8 mph - N/A Rain Light Rain
12:55 AM 62.6 °F 60.8 °F 94% 29.93 in 8.0 mi SSE 5.8 mph - 0.10 in Rain Light Rain
1:15 AM 62.6 °F 60.8 °F 94% 29.92 in 1.5 mi SSE 9.2 mph - 0.08 in Rain Heavy Rain
1:35 AM 62.6 °F 60.8 °F 94% 29.92 in 3.0 mi SSE 8.1 mph - 0.12 in   Drizzle
1:55 AM 62.6 °F 60.8 °F 94% 29.91 in 5.0 mi SSE 3.5 mph - 0.12 in   Overcast
2:15 AM 62.6 °F 60.8 °F 94% 29.91 in 5.0 mi SE 5.8 mph - N/A   Overcast
2:35 AM 62.6 °F 60.8 °F 94% 29.90 in 6.0 mi SE 5.8 mph - N/A   Overcast
2:55 AM 62.6 °F 60.8 °F 94% 29.90 in 10.0 mi South 5.8 mph - N/A   Overcast
3:15 AM 62.6 °F 60.8 °F 94% 29.93 in 5.0 mi WNW 12.7 mph 20.7 mph 0.01 in Rain Heavy Rain
3:35 AM 62.6 °F 60.8 °F 94% 29.93 in 4.0 mi WNW 6.9 mph - 0.06 in   Overcast
3:55 AM 60.8 °F 60.8 °F 100% 29.93 in 5.0 mi WNW 4.6 mph - 0.06 in   Light Drizzle
4:15 AM 60.8 °F 60.8 °F 100% 29.92 in 5.0 mi NW 3.5 mph - N/A   Light Drizzle
4:35 AM 60.8 °F 60.8 °F 100% 29.93 in 4.0 mi WNW 9.2 mph - N/A Rain Rain
4:55 AM 60.8 °F 60.8 °F 100% 29.92 in 2.0 mi Calm Calm - 0.10 in Rain Light Rain
5:15 AM 60.8 °F 60.8 °F 100% 29.93 in 2.5 mi Calm Calm - 0.04 in Rain Heavy Rain
5:35 AM 60.8 °F 60.8 °F 100% 29.92 in 3.0 mi SSE 4.6 mph - 0.09 in Rain Light Rain
5:55 AM 60.8 °F 60.8 °F 100% 29.90 in 5.0 mi Calm Calm - 0.10 in   Scattered Clouds
6:15 AM 60.8 °F 60.8 °F 100% 29.92 in 5.0 mi Calm Calm - N/A   Light Drizzle
6:35 AM 59.0 °F 59.0 °F 100% 29.93 in 4.0 mi Calm Calm - N/A   Scattered Clouds
6:55 AM 59.0 °F 59.0 °F 100% 29.93 in 5.0 mi Calm Calm - N/A   Mostly Cloudy
7:15 AM 59.0 °F 59.0 °F 100% 29.93 in 7.0 mi West 4.6 mph - N/A   Mostly Cloudy
7:35 AM 59.0 °F 59.0 °F 100% 29.94 in 8.0 mi West 6.9 mph - N/A   Overcast
7:55 AM 59.0 °F 59.0 °F 100% 29.94 in 10.0 mi West 6.9 mph - N/A   Overcast
8:15 AM 59.0 °F 57.2 °F 94% 29.96 in 10.0 mi WNW 5.8 mph - N/A   Overcast
8:35 AM 57.2 °F 51.8 °F 82% 29.97 in 10.0 mi WNW 10.4 mph - N/A   Overcast
8:55 AM 55.4 °F 51.8 °F 88% 29.98 in 10.0 mi West 9.2 mph - N/A   Scattered Clouds
9:15 AM 55.4 °F 51.8 °F 88% 29.98 in 10.0 mi WNW 8.1 mph - N/A   Clear
9:35 AM 55.4 °F 51.8 °F 88% 29.99 in 10.0 mi WNW 9.2 mph - N/A   Clear
9:55 AM 55.4 °F 51.8 °F 88% 30.00 in 10.0 mi WNW 10.4 mph - N/A   Clear
10:15 AM 55.4 °F 51.8 °F 88% 30.01 in 10.0 mi WNW 12.7 mph - N/A   Scattered Clouds
10:35 AM 55.4 °F 51.8 °F 88% 30.00 in 10.0 mi NW 9.2 mph - N/A   Overcast
10:55 AM 55.4 °F 51.8 °F 88% 30.00 in 10.0 mi West 9.2 mph - N/A   Overcast
11:15 AM 55.4 °F 51.8 °F 88% 30.01 in 10.0 mi West 6.9 mph - N/A   Mostly Cloudy
11:35 AM 57.2 °F 50.0 °F 77% 30.01 in 10.0 mi WSW 9.2 mph - N/A   Mostly Cloudy
11:55 AM 57.2 °F 50.0 °F 77% 30.00 in 10.0 mi West 8.1 mph - N/A   Mostly Cloudy
12:15 PM 57.2 °F 48.2 °F 72% 30.00 in 10.0 mi WNW 8.1 mph - N/A   Partly Cloudy
12:35 PM 57.2 °F 48.2 °F 72% 30.00 in 10.0 mi West 8.1 mph - N/A   Clear
12:55 PM 59.0 °F 48.2 °F 67% 30.01 in 10.0 mi WSW 11.5 mph - N/A   Partly Cloudy
1:15 PM 59.0 °F 48.2 °F 67% 30.00 in 10.0 mi West 9.2 mph - N/A   Partly Cloudy
1:35 PM 57.2 °F 46.4 °F 67% 29.99 in 10.0 mi West 6.9 mph - N/A   Partly Cloudy
1:55 PM 59.0 °F 46.4 °F 63% 29.99 in 10.0 mi West 10.4 mph - N/A   Clear
2:15 PM 59.0 °F 46.4 °F 63% 29.99 in 10.0 mi West 11.5 mph - N/A   Clear
2:35 PM 59.0 °F 46.4 °F 63% 29.99 in 10.0 mi WSW 10.4 mph - N/A   Clear
2:55 PM 59.0 °F 46.4 °F 63% 30.00 in 10.0 mi SW 8.1 mph - N/A   Clear
3:15 PM 60.8 °F 46.4 °F 59% 29.99 in 10.0 mi WSW 8.1 mph - N/A   Clear
3:35 PM 60.8 °F 46.4 °F 59% 29.98 in 10.0 mi West 6.9 mph - N/A   Clear
3:55 PM 60.8 °F 46.4 °F 59% 29.99 in 10.0 mi West 10.4 mph - N/A   Clear
4:15 PM 60.8 °F 44.6 °F 55% 29.99 in 10.0 mi West 8.1 mph - N/A   Clear
4:35 PM 60.8 °F 44.6 °F 55% 30.00 in 10.0 mi West 9.2 mph - N/A   Clear
4:55 PM 60.8 °F 44.6 °F 55% 29.99 in 10.0 mi WNW 6.9 mph - N/A   Clear
5:15 PM 60.8 °F 44.6 °F 55% 29.99 in 10.0 mi West 5.8 mph - N/A   Clear
5:35 PM 60.8 °F 44.6 °F 55% 29.99 in 10.0 mi West 8.1 mph - N/A   Clear
5:55 PM 59.0 °F 44.6 °F 59% 29.99 in 10.0 mi WNW 8.1 mph - N/A   Clear
6:15 PM 57.2 °F 42.8 °F 59% 30.00 in 10.0 mi WNW 5.8 mph - N/A   Clear
6:35 PM 57.2 °F 42.8 °F 59% 30.01 in 10.0 mi West 4.6 mph - N/A   Clear
6:55 PM 55.4 °F 42.8 °F 63% 30.01 in 10.0 mi West 4.6 mph - N/A   Clear
7:15 PM 53.6 °F 42.8 °F 67% 30.02 in 10.0 mi West 3.5 mph - N/A   Clear
7:55 PM 53.6 °F 42.8 °F 67% 30.04 in 10.0 mi West 4.6 mph - N/A   Clear
8:15 PM 51.8 °F 42.8 °F 71% 30.04 in 10.0 mi West 5.8 mph - N/A   Clear
8:35 PM 51.8 °F 42.8 °F 71% 30.04 in 10.0 mi Calm Calm - N/A   Clear
8:55 PM 51.8 °F 42.8 °F 71% 30.05 in 10.0 mi WNW 4.6 mph - N/A   Clear
9:15 PM 51.8 °F 44.6 °F 76% 30.05 in 10.0 mi WNW 5.8 mph - N/A   Clear
9:35 PM 51.8 °F 42.8 °F 71% 30.06 in 10.0 mi WNW 5.8 mph - N/A   Clear
9:55 PM 51.8 °F 42.8 °F 71% 30.06 in 10.0 mi WNW 6.9 mph - N/A   Clear
10:15 PM 51.8 °F 42.8 °F 71% 30.08 in 10.0 mi NW 8.1 mph - N/A   Clear
10:35 PM 51.8 °F 41.0 °F 67% 30.08 in 10.0 mi NW 8.1 mph - N/A   Clear
10:55 PM 50.0 °F 41.0 °F 71% 30.08 in 10.0 mi NW 8.1 mph - N/A   Clear
11:15 PM 48.2 °F 39.2 °F 71% 30.08 in 10.0 mi NW 6.9 mph - N/A   Clear
11:35 PM 46.4 °F 39.2 °F 76% 30.08 in 10.0 mi Calm Calm - N/A   Clear
11:55 PM 46.4 °F 39.2 °F 76% 30.08 in 10.0 mi Calm Calm - N/A   Clear